SL-8 DEB, 45514

Orbit data source: Space-Track

SL-8 DEB, 45514 is space debris in LEO originally from a launch on Mon, 17 Mar 1980 UTC launched from the Plesetsk Missile And Space Complex (PKMTR). Debris objects in space refer to the collection of defunct objects orbiting the Earth. Examples of debris include non-operational satellites, rocket bodies, and fragments generated from explosions, collisions, or faulty payload assembly.

Loading next visibility...
Identifier
45514, 1980-022D
Orbit
LEO
Last TLE update
5 days ago
Origin
Manufacturer
Unknown
Mission
Spacecraft
Bus & Motor
Unknown
Mass
Unknown
Launch date (UTC)
1980-03-17 (45 years ago)
Launch vehicle
Unknown
Launch site
Plesetsk Missile And Space Complex (PKMTR)
Object type
Payload
Rocket body
Debris
Shape & HBR
Unknown
Radar Cross Section
Small (<0.1 m²)

Expand to show TLE details & history

TLE from 5 days ago
0 SL-8 DEB
1 45514U 80022D   25181.88154436  .00000497  00000-0  45912-3 0  9991
2 45514  82.9417 130.2174 0032059 128.8875 231.5152 13.80384158563844
Epoch: 2025-06-30T21:09Z
TLE epoch observation values (Epoch: 2025-06-30T21:09:25.432Z)
Latitude
0.00001°
Longitude
-106.32355°
Altitude
980.126 km
Speed
7.354 km/s
True Right ascension
08h 40m 52s
True Declination
0° 00' 00"
Sunlit
Object was in daylight at epoch
Visualization orbit readout
Latitude
52.88322°
Longitude
-100.75711°
Altitude
959.734 km
Speed
7.383 km/s
Apparent Right ascension
03h 25m 01s
Apparent Declination
34° 38' 13"
Sunlit
Object is in daylight
Visualization observer readout
Local Sidereal Time
11:07:37
Azimuth
311.856° NW
Elevation
5.253°
Doppler factor
1
Orbital elements
Apogee altitude
983.19 km
Perigee altitude
936.142 km
Semi-major axis
7,337.803 km
Eccentricity
0.00321
Inclination
82.9417°
RAAN
130.2174°
Arg. of periapsis
128.8875°
True anomaly
Unknown
Mean anomaly
231.5152°
Eccentric anomaly
Unknown
Mean motion
3.45298 °/min
Orbital period
104.26 mins
BSTAR
0.00045912
Loading maneuver chart data...
Loading SW <> Apogee altitude chart data...
Loading historical data...
Loading historical data...
Loading historical data...
Loading historical data...
Loading historical data...
Loading historical data...
Loading historical data...
Other satellites on launch #22 in the year 1980 (1980-03-17 UTC)

SL-8 DEB Visibility forecast

Observer location: undefined°, undefined°

Span
Click to sort rows by Start time (UTC) header in descending order
Start Az.
Max El. time (UTC)
Max El. Az.
Max El.
End time (UTC)
End Az.
6 mins2025-07-06 06:29:18.871Z34.164° NE2025-07-06 06:32:18.871Z66.131° ENE16.081°2025-07-06 06:35:18.871Z99.243° ESE
10 mins2025-07-06 08:13:18.871Z346.03° N2025-07-06 08:18:18.871Z256.558° W42.865°2025-07-06 08:23:18.871Z186.055° SSW
9 mins2025-07-06 19:56:18.871Z142.894° SSE2025-07-06 20:00:18.871Z80.678° E30.871°2025-07-06 20:05:18.871Z24.458° NE
9 mins2025-07-06 21:41:18.871Z235.084° WSW2025-07-06 21:45:18.871Z290.458° WNW26.982°2025-07-06 21:50:18.871Z346.399° N
|